Regional Weather Roundup
Issued by NWS Upton, NY

Current Version | Previous Version | Text Only | Print | Product List | Glossary On
Versions: 1 2 3 4 5 6 7 8 9 10 11 12 13 14 15 16 17 18 19 20 21 22 23 24 25 26 27 28 29 30 31 32 33 34 35 36 37 38 39 40 41 42 43 44 45 46 47 48 49 50
000
ASUS41 KOKX 021005
RWROKX

REGIONAL WEATHER ROUNDUP
NATIONAL WEATHER SERVICE NEW YORK NY
500 AM EST MON MAR 02 2015

NOTE: "FAIR" INDICATES FEW OR NO CLOUDS BELOW 12,000 FEET WITH NO
SIGNIFICANT WEATHER AND/OR OBSTRUCTIONS TO VISIBILITY.

NYZ071-072-176-178-NJZ106-104-021100-
NEW YORK CITY METRO AREA


CITY           SKY/WX    TMP DP  RH WIND       PRES   REMARKS
CENTRAL PARK   CLOUDY    30  24  78 VRB5      30.04F WCI  25
LAGUARDIA APRT CLOUDY    31  25  78 NW3       30.02F
KENNEDY INTL   CLOUDY    30  27  86 SW8       30.05F WCI  23
NEWARK/LIBERTY CLOUDY    29  27  92 CALM      30.03F
BRNX BOT. GARD   N/A    N/A N/A N/A CALM      30.05R
TETERBORO      CLOUDY    29  24  82 CALM      30.03F
$$

NYZ177-179-078>081-021100-
LONG ISLAND NEW YORK

CITY           SKY/WX    TMP DP  RH WIND       PRES   REMARKS
FARMINGDALE    CLOUDY    30  26  85 W7        30.03F WCI  23
ISLIP          CLOUDY    29  26  89 SW5       30.00F FOG     WCI  24
SHIRLEY        CLOUDY    29  26  89 SW6       30.03F FOG     WCI  23
WESTHAMPTON    CLOUDY    30  26  85 W8        30.03F WCI  22
MONTAUK POINT    N/A     30  26  85 W10       30.02F WCI  21
$$

NYZ052-065-067-021100-
HUDSON VALLEY

CITY           SKY/WX    TMP DP  RH WIND       PRES   REMARKS
WHITE PLAINS   CLOUDY    26  22  84 NW6       29.99F WCI  19
NEWBURGH       CLOUDY    25  23  93 W7        30.02S WCI  17
MONTGOMERY     CLOUDY    25  22  88 SW9       30.01S WCI  15
POUGHKEEPSIE   CLOUDY    27  22  81 SW5       30.02S WCI  22
ALBANY         LGT SNOW  23  19  85 CALM      30.03R FOG
$$

NJZ001-105-106-008-010-013-015-019>022-104-021100-
NEW JERSEY

CITY           SKY/WX    TMP DP  RH WIND       PRES   REMARKS
NEWARK/LIBERTY CLOUDY    29  27  92 CALM      30.03F
TETERBORO      CLOUDY    29  24  82 CALM      30.03F
CALDWELL       CLOUDY    27  22  81 CALM      30.03F
MORRISTOWN     CLOUDY    28  25  86 CALM      30.03S
SOMERVILLE     CLOUDY    28  24  85 CALM      30.03F FOG
SUSSEX         CLOUDY    24  20  84 SW6       30.02F WCI  17
ANDOVER          N/A     24  22  91 CALM      30.02F
TRENTON        CLOUDY    29  26  89 NW7       30.03F FOG     WCI  22
MILLVILLE      MIX PCPN  32  31  96 W3        30.06F FOG
ATLANTIC CITY  MIX PCPN  32  31  96 W5        30.06F FOG     WCI  27
WRIGHTSTOWN    CLOUDY    32  32 100 CALM      30.03F FOG
TOMS RIVER     CLOUDY    34  30  86 CALM      30.04F
BELMAR         CLOUDY    32  27  80 CALM      30.03F
$$

PAZ047>061-062-071-021100-
EASTERN PENNSYLVANIA

CITY           SKY/WX    TMP DP  RH WIND       PRES   REMARKS
PHILADELPHIA   CLOUDY    32  30  92 SW5       30.08F FOG     WCI  27
ALLENTOWN      CLOUDY    27  23  85 W3        30.05F FOG
SCRANTON       LGT SNOW  26  23  88 SW8       30.01S WCI  18
$$

CTZ002-004>006-009-010-012-RIZ004-006-007-MAZ004-011-015-021100-
SOUTHERN NEW ENGLAND
 IN CT

CITY           SKY/WX    TMP DP  RH WIND       PRES   REMARKS
BRADLEY INTL   CLOUDY    27  23  85 CALM      29.99S
HARTFORD       CLOUDY    27  23  85 CALM      30.00F
DANBURY        CLOUDY    25  19  78 W6        30.00F WCI  18
WTRBRY/OXFORD  CLOUDY    25  16  68 CALM      29.98R
BRIDGEPORT     CLOUDY    27  24  89 SW8       30.02F WCI  19
MERIDEN        CLOUDY    26  22  84 SE3       30.00F
NEW HAVEN      CLOUDY    27  23  85 VRB3      30.01F
CHESTER        CLOUDY    28  25  86 SW3       29.98F
GROTON         CLOUDY    27  24  89 W6        30.00F WCI  20
WILLIMANTIC    CLOUDY    27  22  81 W3        29.99F

 IN RI

CITY           SKY/WX    TMP DP  RH WIND       PRES   REMARKS
PROVIDENCE     CLOUDY    28  24  85 SW5       29.99S WCI  23
BLOCK ISLAND   CLOUDY    28  25  86 W13G18    29.99S WCI  18
WESTERLY       CLOUDY    28  25  88 W6        30.01F WCI  22

 IN MA

CITY           SKY/WX    TMP DP  RH WIND       PRES   REMARKS
BOSTON         CLOUDY    28  23  81 W9        29.97S WCI  19
WORCESTER      CLOUDY    25  20  81 W15       29.90F WCI  13
WESTFIELD      LGT SNOW  24  21  88 CALM      29.98F FOG
PROVINCETOWN   MOCLDY    30  27  86 W8        29.96F WCI  23
NANTUCKET      CLOUDY    32  30  92 W12       29.96F FOG     WCI  23
$$

ANZ330-335-338-340-345-350-353-355-021100-
COASTAL MARINE OBSERVATIONS


STATION/POSITION TIME  SKY/WX   TEMP    WIND        PRES    VSBY  WAVE
                                AIR SEA DIR/SP/G                  HT/PER
                 (UTC)          (F)     (DEG/KT/KT) (MB)    (MI)  (FT/S)
NY HARB ENTRANCE 1000            33 37   CALM  /  2 1017.1          1/ 8
4S FIRE IS       NOT AVBL
20S FIRE ISLAND  0900               36              1018.3          1/ 8
23SW MTP         1000                                 N/A           3/ 3
HUDSON CANYON    NOT AVBL
EXECUTION ROCKS  NOT AVBL
WESTERN LI SOUND NOT AVBL
CENTRAL LI SOUND NOT AVBL
EASTERN LI SOUND NOT AVBL
ROBBINS REEF     1000            29     290/  5/  6 1015.8
$$


>>>>>>>>>>>>>>>>>>>>>>>>>>>> KEY <<<<<<<<<<<<<<<<<<<<<<<<<<<
>                                                          <
>     SKY/WX - SKY CONDITION/PRESENT WEATHER               <
>     TMP    - TEMPERATURE IN FAHRENHEIT                   <
>     DP     - DEWPOINT IN FAHRENHEIT                      <
>     RH     - RELATIVE HUMIDITY IN PERCENT                <
>     WIND   - DIRECTION AND SPEED IN MPH                  <
>     PRES   - MEAN SEA LEVEL PRESSURE IN INCHES OF HG     <
>     WCI    - WIND CHILL INDEX                            <
>     VSB    - VISIBILITY IN MILES                         <
>     HX     - HEAT INDEX                                  <
>     TC     - TEMPERATURE IN CELSIUS                      <
>     VRB    - VARIABLE WIND DIRECTION                     <
>                                                          <
>>>>>>>>>>>>>>>>>>>>>>>>>>>> KEY <<<<<<<<<<<<<<<<<<<<<<<<<<<




USA.gov is the U.S. government's official web portal to all federal, state and local government web resources and services.